Year,Month,Day,Hour,Minute,Value (Times are PST for windspeed in km/hr)
2015,06,13,00,00,0.20
2015,06,13,00,01,0.00
2015,06,13,00,02,0.60
2015,06,13,00,03,1.70
2015,06,13,00,04,0.90
2015,06,13,00,05,0.50
2015,06,13,00,06,1.30
2015,06,13,00,07,1.50
2015,06,13,00,08,1.40
2015,06,13,00,09,0.30
2015,06,13,00,10,0.40
2015,06,13,00,11,0.10
2015,06,13,00,12,0.50
2015,06,13,00,13,0.10
2015,06,13,00,14,0.00
2015,06,13,00,15,0.00
2015,06,13,00,16,0.70
2015,06,13,00,17,0.80
2015,06,13,00,18,1.00
2015,06,13,00,19,2.20
2015,06,13,00,20,1.10
2015,06,13,00,21,1.10
2015,06,13,00,22,2.10
2015,06,13,00,23,2.10
2015,06,13,00,24,1.40
2015,06,13,00,25,0.20
2015,06,13,00,26,1.50
2015,06,13,00,27,2.00
2015,06,13,00,28,2.20
2015,06,13,00,29,1.70
2015,06,13,00,30,1.30
2015,06,13,00,31,0.10
2015,06,13,00,32,0.00
2015,06,13,00,33,0.20
2015,06,13,00,34,0.70
2015,06,13,00,35,0.20
2015,06,13,00,36,0.20
2015,06,13,00,37,0.30
2015,06,13,00,38,0.00
2015,06,13,00,39,1.10
2015,06,13,00,40,1.70
2015,06,13,00,41,0.10
2015,06,13,00,42,0.10
2015,06,13,00,43,0.10
2015,06,13,00,44,0.00
2015,06,13,00,45,1.20
2015,06,13,00,46,1.80
2015,06,13,00,47,0.50
2015,06,13,00,48,0.60
2015,06,13,00,49,1.40
2015,06,13,00,50,2.50
2015,06,13,00,51,1.80
2015,06,13,00,52,0.30
2015,06,13,00,53,0.00
2015,06,13,00,54,0.00
2015,06,13,00,55,0.50
2015,06,13,00,56,2.10
2015,06,13,00,57,1.40
2015,06,13,00,58,0.80
2015,06,13,00,59,0.30
2015,06,13,01,00,0.50
2015,06,13,01,01,0.80
2015,06,13,01,02,0.00
2015,06,13,01,03,0.00
2015,06,13,01,04,0.10
2015,06,13,01,05,0.00
2015,06,13,01,06,0.00
2015,06,13,01,07,0.00
2015,06,13,01,08,0.00
2015,06,13,01,09,0.00
2015,06,13,01,10,0.90
2015,06,13,01,11,0.20
2015,06,13,01,12,0.00
2015,06,13,01,13,0.00
2015,06,13,01,14,0.00
2015,06,13,01,15,0.00
2015,06,13,01,16,0.00
2015,06,13,01,17,0.00
2015,06,13,01,18,0.00
2015,06,13,01,19,0.00
2015,06,13,01,20,0.00
2015,06,13,01,21,0.00
2015,06,13,01,22,0.00
2015,06,13,01,23,0.00
2015,06,13,01,24,0.00
2015,06,13,01,25,0.00
2015,06,13,01,26,0.00
2015,06,13,01,27,0.30
2015,06,13,01,28,0.00
2015,06,13,01,29,0.00
2015,06,13,01,30,0.40
2015,06,13,01,31,0.80
2015,06,13,01,32,0.50
2015,06,13,01,33,0.00
2015,06,13,01,34,0.00
2015,06,13,01,35,0.00
2015,06,13,01,36,0.00
2015,06,13,01,37,0.10
2015,06,13,01,38,1.30
2015,06,13,01,39,3.20
2015,06,13,01,40,4.30
2015,06,13,01,41,3.90
2015,06,13,01,42,3.00
2015,06,13,01,43,1.20
2015,06,13,01,44,0.10
2015,06,13,01,45,0.00
2015,06,13,01,46,0.10
2015,06,13,01,47,0.00
2015,06,13,01,48,0.10
2015,06,13,01,49,0.00
2015,06,13,01,50,0.30
2015,06,13,01,51,1.60
2015,06,13,01,52,1.30
2015,06,13,01,53,0.60
2015,06,13,01,54,2.20
2015,06,13,01,55,1.10
2015,06,13,01,56,0.30
2015,06,13,01,57,0.90
2015,06,13,01,58,0.00
2015,06,13,01,59,0.00
2015,06,13,02,00,0.20
2015,06,13,02,01,0.60
2015,06,13,02,02,1.00
2015,06,13,02,03,0.50
2015,06,13,02,04,1.40
2015,06,13,02,05,0.10
2015,06,13,02,06,0.30
2015,06,13,02,07,0.00
2015,06,13,02,08,0.10
2015,06,13,02,09,0.10
2015,06,13,02,10,1.10
2015,06,13,02,11,1.50
2015,06,13,02,12,0.50
2015,06,13,02,13,1.40
2015,06,13,02,14,0.10
2015,06,13,02,15,0.00
2015,06,13,02,16,0.10
2015,06,13,02,17,1.20
2015,06,13,02,18,2.00
2015,06,13,02,19,2.50
2015,06,13,02,20,0.70
2015,06,13,02,21,0.00
2015,06,13,02,22,0.00
2015,06,13,02,23,0.00
2015,06,13,02,24,0.00
2015,06,13,02,25,0.00
2015,06,13,02,26,0.90
2015,06,13,02,27,2.30
2015,06,13,02,28,2.30
2015,06,13,02,29,1.80
2015,06,13,02,30,0.20
2015,06,13,02,31,0.00
2015,06,13,02,32,0.00
2015,06,13,02,33,0.00
2015,06,13,02,34,0.00
2015,06,13,02,35,0.20
2015,06,13,02,36,2.80
2015,06,13,02,37,1.50
2015,06,13,02,38,0.00
2015,06,13,02,39,0.00
2015,06,13,02,40,0.00
2015,06,13,02,41,0.00
2015,06,13,02,42,0.90
2015,06,13,02,43,1.80
2015,06,13,02,44,2.90
2015,06,13,02,45,0.90
2015,06,13,02,46,1.70
2015,06,13,02,47,0.60
2015,06,13,02,48,1.10
2015,06,13,02,49,2.20
2015,06,13,02,50,2.20
2015,06,13,02,51,1.00
2015,06,13,02,52,1.40
2015,06,13,02,53,1.70
2015,06,13,02,54,0.60
2015,06,13,02,55,0.30
2015,06,13,02,56,1.70
2015,06,13,02,57,1.50
2015,06,13,02,58,3.00
2015,06,13,02,59,3.30
2015,06,13,03,00,4.60
2015,06,13,03,01,2.80
2015,06,13,03,02,1.40
2015,06,13,03,03,0.40
2015,06,13,03,04,2.70
2015,06,13,03,05,3.50
2015,06,13,03,06,2.10
2015,06,13,03,07,1.80
2015,06,13,03,08,1.10
2015,06,13,03,09,0.40
2015,06,13,03,10,1.80
2015,06,13,03,11,2.40
2015,06,13,03,12,1.70
2015,06,13,03,13,2.50
2015,06,13,03,14,1.80
2015,06,13,03,15,1.10
2015,06,13,03,16,2.20
2015,06,13,03,17,3.40
2015,06,13,03,18,1.60
2015,06,13,03,19,0.30
2015,06,13,03,20,1.70
2015,06,13,03,21,2.80
2015,06,13,03,22,3.00
2015,06,13,03,23,2.60
2015,06,13,03,24,2.90
2015,06,13,03,25,3.00
2015,06,13,03,26,3.20
2015,06,13,03,27,2.70
2015,06,13,03,28,3.00
2015,06,13,03,29,2.10
2015,06,13,03,30,1.50
2015,06,13,03,31,1.00
2015,06,13,03,32,0.30
2015,06,13,03,33,1.20
2015,06,13,03,34,2.40
2015,06,13,03,35,2.50
2015,06,13,03,36,1.30
2015,06,13,03,37,0.30
2015,06,13,03,38,0.00
2015,06,13,03,39,0.20
2015,06,13,03,40,0.20
2015,06,13,03,41,0.00
2015,06,13,03,42,0.10
2015,06,13,03,43,0.90
2015,06,13,03,44,2.10
2015,06,13,03,45,2.40
2015,06,13,03,46,1.70
2015,06,13,03,47,0.20
2015,06,13,03,48,0.00
2015,06,13,03,49,0.00
2015,06,13,03,50,1.50
2015,06,13,03,51,1.90
2015,06,13,03,52,2.10
2015,06,13,03,53,2.80
2015,06,13,03,54,1.80
2015,06,13,03,55,0.80
2015,06,13,03,56,0.40
2015,06,13,03,57,0.10
2015,06,13,03,58,0.00
2015,06,13,03,59,1.90
2015,06,13,04,00,1.80
2015,06,13,04,01,2.90
2015,06,13,04,02,1.30
2015,06,13,04,03,0.40
2015,06,13,04,04,0.30
2015,06,13,04,05,0.70
2015,06,13,04,06,0.70
2015,06,13,04,07,3.30
2015,06,13,04,08,3.80
2015,06,13,04,09,1.60
2015,06,13,04,10,1.20
2015,06,13,04,11,1.20
2015,06,13,04,12,0.40
2015,06,13,04,13,0.00
2015,06,13,04,14,1.30
2015,06,13,04,15,2.00
2015,06,13,04,16,1.60
2015,06,13,04,17,1.60
2015,06,13,04,18,0.10
2015,06,13,04,19,0.40
2015,06,13,04,20,2.30
2015,06,13,04,21,1.50
2015,06,13,04,22,0.90
2015,06,13,04,23,0.60
2015,06,13,04,24,0.90
2015,06,13,04,25,0.90
2015,06,13,04,26,1.20
2015,06,13,04,27,1.30
2015,06,13,04,28,0.80
2015,06,13,04,29,0.10
2015,06,13,04,30,0.40
2015,06,13,04,31,1.40
2015,06,13,04,32,2.30
2015,06,13,04,33,1.70
2015,06,13,04,34,1.70
2015,06,13,04,35,0.40
2015,06,13,04,36,0.00
2015,06,13,04,37,0.00
2015,06,13,04,38,0.00
2015,06,13,04,39,1.50
2015,06,13,04,40,2.80
2015,06,13,04,41,2.80
2015,06,13,04,42,2.00
2015,06,13,04,43,1.10
2015,06,13,04,44,0.00
2015,06,13,04,45,0.00
2015,06,13,04,46,0.00
2015,06,13,04,47,1.00
2015,06,13,04,48,2.90
2015,06,13,04,49,3.70
2015,06,13,04,50,3.00
2015,06,13,04,51,2.30
2015,06,13,04,52,2.60
2015,06,13,04,53,2.60
2015,06,13,04,54,2.20
2015,06,13,04,55,3.20
2015,06,13,04,56,3.00
2015,06,13,04,57,2.60
2015,06,13,04,58,1.70
2015,06,13,04,59,0.30
2015,06,13,05,00,0.00
2015,06,13,05,01,0.00
2015,06,13,05,02,0.00
2015,06,13,05,03,0.00
2015,06,13,05,04,0.20
2015,06,13,05,05,1.20
2015,06,13,05,06,0.00
2015,06,13,05,07,0.20
2015,06,13,05,08,1.20
2015,06,13,05,09,1.70
2015,06,13,05,10,1.40
2015,06,13,05,11,1.20
2015,06,13,05,12,2.10
2015,06,13,05,13,0.90
2015,06,13,05,14,1.10
2015,06,13,05,15,2.60
2015,06,13,05,16,3.50
2015,06,13,05,17,3.10
2015,06,13,05,18,2.70
2015,06,13,05,19,2.40
2015,06,13,05,20,2.10
2015,06,13,05,21,3.40
2015,06,13,05,22,1.40
2015,06,13,05,23,2.00
2015,06,13,05,24,2.30
2015,06,13,05,25,0.80
2015,06,13,05,26,0.40
2015,06,13,05,27,2.40
2015,06,13,05,28,2.20
2015,06,13,05,29,0.60
2015,06,13,05,30,0.10
2015,06,13,05,31,0.80
2015,06,13,05,32,2.00
2015,06,13,05,33,1.90
2015,06,13,05,34,0.10
2015,06,13,05,35,0.00
2015,06,13,05,36,0.40
2015,06,13,05,37,0.60
2015,06,13,05,38,1.60
2015,06,13,05,39,0.90
2015,06,13,05,40,0.50
2015,06,13,05,41,2.70
2015,06,13,05,42,1.90
2015,06,13,05,43,0.80
2015,06,13,05,44,2.20
2015,06,13,05,45,1.10
2015,06,13,05,46,0.00
2015,06,13,05,47,0.00
2015,06,13,05,48,0.20
2015,06,13,05,49,2.10
2015,06,13,05,50,2.00
2015,06,13,05,51,1.60
2015,06,13,05,52,1.40
2015,06,13,05,53,0.50
2015,06,13,05,54,1.30
2015,06,13,05,55,1.20
2015,06,13,05,56,0.00
2015,06,13,05,57,3.00
2015,06,13,05,58,4.00
2015,06,13,05,59,0.70
2015,06,13,06,00,1.20
2015,06,13,06,01,3.00
2015,06,13,06,02,2.50
2015,06,13,06,03,2.30
2015,06,13,06,04,3.10
2015,06,13,06,05,2.20
2015,06,13,06,06,1.70
2015,06,13,06,07,3.00
2015,06,13,06,08,1.40
2015,06,13,06,09,3.00
2015,06,13,06,10,1.90
2015,06,13,06,11,1.60
2015,06,13,06,12,0.00
2015,06,13,06,13,0.80
2015,06,13,06,14,0.10
2015,06,13,06,15,0.10
2015,06,13,06,16,0.90
2015,06,13,06,17,0.80
2015,06,13,06,18,0.20
2015,06,13,06,19,0.60
2015,06,13,06,20,2.90
2015,06,13,06,21,2.40
2015,06,13,06,22,2.40
2015,06,13,06,23,3.40
2015,06,13,06,24,3.00
2015,06,13,06,25,0.20
2015,06,13,06,26,0.00
2015,06,13,06,27,0.40
2015,06,13,06,28,1.50
2015,06,13,06,29,1.20
2015,06,13,06,30,0.90
2015,06,13,06,31,2.70
2015,06,13,06,32,1.50
2015,06,13,06,33,3.20
2015,06,13,06,34,3.60
2015,06,13,06,35,3.00
2015,06,13,06,36,0.40
2015,06,13,06,37,0.10
2015,06,13,06,38,0.00
2015,06,13,06,39,0.30
2015,06,13,06,40,2.40
2015,06,13,06,41,3.50
2015,06,13,06,42,4.10
2015,06,13,06,43,3.20
2015,06,13,06,44,1.60
2015,06,13,06,45,1.30
2015,06,13,06,46,4.60
2015,06,13,06,47,2.30
2015,06,13,06,48,0.40
2015,06,13,06,49,0.10
2015,06,13,06,50,1.50
2015,06,13,06,51,1.50
2015,06,13,06,52,2.70
2015,06,13,06,53,0.70
2015,06,13,06,54,0.00
2015,06,13,06,55,0.00
2015,06,13,06,56,0.60
2015,06,13,06,57,0.50
2015,06,13,06,58,1.30
2015,06,13,06,59,1.80
2015,06,13,07,00,0.20
2015,06,13,07,01,1.10
2015,06,13,07,02,2.80
2015,06,13,07,03,2.50
2015,06,13,07,04,1.30
2015,06,13,07,05,0.30
2015,06,13,07,06,1.70
2015,06,13,07,07,1.40
2015,06,13,07,08,1.20
2015,06,13,07,09,2.20
2015,06,13,07,10,1.20
2015,06,13,07,11,0.10
2015,06,13,07,12,0.10
2015,06,13,07,13,2.50
2015,06,13,07,14,2.10
2015,06,13,07,15,0.90
2015,06,13,07,16,2.90
2015,06,13,07,17,0.50
2015,06,13,07,18,0.00
2015,06,13,07,19,1.30
2015,06,13,07,20,1.90
2015,06,13,07,21,1.10
2015,06,13,07,22,0.30
2015,06,13,07,23,3.20
2015,06,13,07,24,3.20
2015,06,13,07,25,2.90
2015,06,13,07,26,0.30
2015,06,13,07,27,0.50
2015,06,13,07,28,1.60
2015,06,13,07,29,1.70
2015,06,13,07,30,1.10
2015,06,13,07,31,1.70
2015,06,13,07,32,1.40
2015,06,13,07,33,4.70
2015,06,13,07,34,4.40
2015,06,13,07,35,5.10
2015,06,13,07,36,3.80
2015,06,13,07,37,2.90
2015,06,13,07,38,4.90
2015,06,13,07,39,2.90
2015,06,13,07,40,0.60
2015,06,13,07,41,0.20
2015,06,13,07,42,0.40
2015,06,13,07,43,2.50
2015,06,13,07,44,1.20
2015,06,13,07,45,0.50
2015,06,13,07,46,0.30
2015,06,13,07,47,0.10
2015,06,13,07,48,0.30
2015,06,13,07,49,2.40
2015,06,13,07,50,0.60
2015,06,13,07,51,2.00
2015,06,13,07,52,0.30
2015,06,13,07,53,1.00
2015,06,13,07,54,0.30
2015,06,13,07,55,0.30
2015,06,13,07,56,0.80
2015,06,13,07,57,0.30
2015,06,13,07,58,2.60
2015,06,13,07,59,4.30
2015,06,13,08,00,1.60
2015,06,13,08,01,1.90
2015,06,13,08,02,2.20
2015,06,13,08,03,2.20
2015,06,13,08,04,2.60
2015,06,13,08,05,2.80
2015,06,13,08,06,4.40
2015,06,13,08,07,2.20
2015,06,13,08,08,0.70
2015,06,13,08,09,0.10
2015,06,13,08,10,0.20
2015,06,13,08,11,0.10
2015,06,13,08,12,1.20
2015,06,13,08,13,4.00
2015,06,13,08,14,3.50
2015,06,13,08,15,2.40
2015,06,13,08,16,0.80
2015,06,13,08,17,0.20
2015,06,13,08,18,1.40
2015,06,13,08,19,2.70
2015,06,13,08,20,2.50
2015,06,13,08,21,1.10
2015,06,13,08,22,0.30
2015,06,13,08,23,0.20
2015,06,13,08,24,0.90
2015,06,13,08,25,1.10
2015,06,13,08,26,0.20
2015,06,13,08,27,0.10
2015,06,13,08,28,0.90
2015,06,13,08,29,4.80
2015,06,13,08,30,2.10
2015,06,13,08,31,11.00
2015,06,13,08,32,8.60
2015,06,13,08,33,3.30
2015,06,13,08,34,5.30
2015,06,13,08,35,6.30
2015,06,13,08,36,10.00
2015,06,13,08,37,8.20
2015,06,13,08,38,3.30
2015,06,13,08,39,4.30
2015,06,13,08,40,3.90
2015,06,13,08,41,7.60
2015,06,13,08,42,9.30
2015,06,13,08,43,7.30
2015,06,13,08,44,7.30
2015,06,13,08,45,4.70
2015,06,13,08,46,3.90
2015,06,13,08,47,2.30
2015,06,13,08,48,2.50
2015,06,13,08,49,4.70
2015,06,13,08,50,6.80
2015,06,13,08,51,8.00
2015,06,13,08,52,3.40
2015,06,13,08,53,2.70
2015,06,13,08,54,1.20
2015,06,13,08,55,3.90
2015,06,13,08,56,4.90
2015,06,13,08,57,8.60
2015,06,13,08,58,8.80
2015,06,13,08,59,14.70
2015,06,13,09,00,8.20
2015,06,13,09,01,6.40
2015,06,13,09,02,4.90
2015,06,13,09,03,4.70
2015,06,13,09,04,4.20
2015,06,13,09,05,4.30
2015,06,13,09,06,9.30
2015,06,13,09,07,6.60
2015,06,13,09,08,11.20
2015,06,13,09,09,9.00
2015,06,13,09,10,7.30
2015,06,13,09,11,4.80
2015,06,13,09,12,10.80
2015,06,13,09,13,7.80
2015,06,13,09,14,6.00
2015,06,13,09,15,3.60
2015,06,13,09,16,3.50
2015,06,13,09,17,4.70
2015,06,13,09,18,18.90
2015,06,13,09,19,12.90
2015,06,13,09,20,7.60
2015,06,13,09,21,4.90
2015,06,13,09,22,2.50
2015,06,13,09,23,0.90
2015,06,13,09,24,5.10
2015,06,13,09,25,14.10
2015,06,13,09,26,14.40
2015,06,13,09,27,13.00
2015,06,13,09,28,9.40
2015,06,13,09,29,6.70
2015,06,13,09,30,8.40
2015,06,13,09,31,4.20
2015,06,13,09,32,6.70
2015,06,13,09,33,5.50
2015,06,13,09,34,1.40
2015,06,13,09,35,1.80
2015,06,13,09,36,5.10
2015,06,13,09,37,2.90
2015,06,13,09,38,11.40
2015,06,13,09,39,10.60
2015,06,13,09,40,10.60
2015,06,13,09,41,5.90
2015,06,13,09,42,4.70
2015,06,13,09,43,3.00
2015,06,13,09,44,3.10
2015,06,13,09,45,9.40
2015,06,13,09,46,6.20
2015,06,13,09,47,2.20
2015,06,13,09,48,4.00
2015,06,13,09,49,5.20
2015,06,13,09,50,5.30
2015,06,13,09,51,3.00
2015,06,13,09,52,4.00
2015,06,13,09,53,2.10
2015,06,13,09,54,2.90
2015,06,13,09,55,1.70
2015,06,13,09,56,6.00
2015,06,13,09,57,12.90
2015,06,13,09,58,7.10
2015,06,13,09,59,5.40
2015,06,13,10,00,8.80
2015,06,13,10,01,3.70
2015,06,13,10,02,4.30
2015,06,13,10,03,6.40
2015,06,13,10,04,3.80
2015,06,13,10,05,5.10
2015,06,13,10,06,5.30
2015,06,13,10,07,5.40
2015,06,13,10,08,9.90
2015,06,13,10,09,6.60
2015,06,13,10,10,6.40
2015,06,13,10,11,7.60
2015,06,13,10,12,10.50
2015,06,13,10,13,3.60
2015,06,13,10,14,1.00
2015,06,13,10,15,2.80
2015,06,13,10,16,0.50
2015,06,13,10,17,1.90
2015,06,13,10,18,5.20
2015,06,13,10,19,5.00
2015,06,13,10,20,5.60
2015,06,13,10,21,8.30
2015,06,13,10,22,3.70
2015,06,13,10,23,3.80
2015,06,13,10,24,7.90
2015,06,13,10,25,6.30
2015,06,13,10,26,4.40
2015,06,13,10,27,6.40
2015,06,13,10,28,2.40
2015,06,13,10,29,3.20
2015,06,13,10,30,10.10
2015,06,13,10,31,8.60
2015,06,13,10,32,4.50
2015,06,13,10,33,6.10
2015,06,13,10,34,6.70
2015,06,13,10,35,3.70
2015,06,13,10,36,5.60
2015,06,13,10,37,11.80
2015,06,13,10,38,6.30
2015,06,13,10,39,7.10
2015,06,13,10,40,4.20
2015,06,13,10,41,3.10
2015,06,13,10,42,5.70
2015,06,13,10,43,4.90
2015,06,13,10,44,5.30
2015,06,13,10,45,5.00
2015,06,13,10,46,3.30
2015,06,13,10,47,3.90
2015,06,13,10,48,3.50
2015,06,13,10,49,3.20
2015,06,13,10,50,3.90
2015,06,13,10,51,4.40
2015,06,13,10,52,2.10
2015,06,13,10,53,1.80
2015,06,13,10,54,3.50
2015,06,13,10,55,4.30
2015,06,13,10,56,10.90
2015,06,13,10,57,12.50
2015,06,13,10,58,9.90
2015,06,13,10,59,11.80
2015,06,13,11,00,5.60
2015,06,13,11,01,4.20
2015,06,13,11,02,3.20
2015,06,13,11,03,1.10
2015,06,13,11,04,3.50
2015,06,13,11,05,3.30
2015,06,13,11,06,2.70
2015,06,13,11,07,4.70
2015,06,13,11,08,4.40
2015,06,13,11,09,4.00
2015,06,13,11,10,5.20
2015,06,13,11,11,4.70
2015,06,13,11,12,3.60
2015,06,13,11,13,4.80
2015,06,13,11,14,7.20
2015,06,13,11,15,14.10
2015,06,13,11,16,9.20
2015,06,13,11,17,7.60
2015,06,13,11,18,6.40
2015,06,13,11,19,7.70
2015,06,13,11,20,6.50
2015,06,13,11,21,8.10
2015,06,13,11,22,2.30
2015,06,13,11,23,1.50
2015,06,13,11,24,1.10
2015,06,13,11,25,0.70
2015,06,13,11,26,4.80
2015,06,13,11,27,5.20
2015,06,13,11,28,2.80
2015,06,13,11,29,4.10
2015,06,13,11,30,9.30
2015,06,13,11,31,4.90
2015,06,13,11,32,5.20
2015,06,13,11,33,3.60
2015,06,13,11,34,7.00
2015,06,13,11,35,6.80
2015,06,13,11,36,7.10
2015,06,13,11,37,3.40
2015,06,13,11,38,4.50
2015,06,13,11,39,4.20
2015,06,13,11,40,3.60
2015,06,13,11,41,2.80
2015,06,13,11,42,4.50
2015,06,13,11,43,3.30
2015,06,13,11,44,2.20
2015,06,13,11,45,7.10
2015,06,13,11,46,5.90
2015,06,13,11,47,3.40
2015,06,13,11,48,6.00
2015,06,13,11,49,7.50
2015,06,13,11,50,8.40
2015,06,13,11,51,5.30
2015,06,13,11,52,6.20
2015,06,13,11,53,5.50
2015,06,13,11,54,7.00
2015,06,13,11,55,3.70
2015,06,13,11,56,1.80
2015,06,13,11,57,5.00
2015,06,13,11,58,4.50
2015,06,13,11,59,1.50
2015,06,13,12,00,1.90
2015,06,13,12,01,4.20
2015,06,13,12,02,2.60
2015,06,13,12,03,4.70
2015,06,13,12,04,4.60
2015,06,13,12,05,5.90
2015,06,13,12,06,4.40
2015,06,13,12,07,6.30
2015,06,13,12,08,8.10
2015,06,13,12,09,6.40
2015,06,13,12,10,4.30
2015,06,13,12,11,4.30
2015,06,13,12,12,6.10
2015,06,13,12,13,2.40
2015,06,13,12,14,1.80
2015,06,13,12,15,6.30
2015,06,13,12,16,4.60
2015,06,13,12,17,6.60
2015,06,13,12,18,5.70
2015,06,13,12,19,3.40
2015,06,13,12,20,4.10
2015,06,13,12,21,10.90
2015,06,13,12,22,12.70
2015,06,13,12,23,10.90
2015,06,13,12,24,5.90
2015,06,13,12,25,8.50
2015,06,13,12,26,14.60
2015,06,13,12,27,9.40
2015,06,13,12,28,8.40
2015,06,13,12,29,5.70
2015,06,13,12,30,4.30
2015,06,13,12,31,5.90
2015,06,13,12,32,4.80
2015,06,13,12,33,4.90
2015,06,13,12,34,9.00
2015,06,13,12,35,8.10
2015,06,13,12,36,3.60
2015,06,13,12,37,6.70
2015,06,13,12,38,4.00
2015,06,13,12,39,3.70
2015,06,13,12,40,3.00
2015,06,13,12,41,4.10
2015,06,13,12,42,2.50
2015,06,13,12,43,5.70
2015,06,13,12,44,4.00
2015,06,13,12,45,5.10
2015,06,13,12,46,5.30
2015,06,13,12,47,4.90
2015,06,13,12,48,7.10
2015,06,13,12,49,11.30
2015,06,13,12,50,7.00
2015,06,13,12,51,4.50
2015,06,13,12,52,8.10
2015,06,13,12,53,6.00
2015,06,13,12,54,6.40
2015,06,13,12,55,6.80
2015,06,13,12,56,7.40
2015,06,13,12,57,6.20
2015,06,13,12,58,3.80
2015,06,13,12,59,5.40
2015,06,13,13,00,2.90
2015,06,13,13,01,5.50
2015,06,13,13,02,6.50
2015,06,13,13,03,10.90
2015,06,13,13,04,9.30
2015,06,13,13,05,7.90
2015,06,13,13,06,4.10
2015,06,13,13,07,12.20
2015,06,13,13,08,9.40
2015,06,13,13,09,9.00
2015,06,13,13,10,7.10
2015,06,13,13,11,9.90
2015,06,13,13,12,4.10
2015,06,13,13,13,5.40
2015,06,13,13,14,4.20
2015,06,13,13,15,6.50
2015,06,13,13,16,3.60
2015,06,13,13,17,2.60
2015,06,13,13,18,3.70
2015,06,13,13,19,1.80
2015,06,13,13,20,5.20
2015,06,13,13,21,4.30
2015,06,13,13,22,4.80
2015,06,13,13,23,4.60
2015,06,13,13,24,8.20
2015,06,13,13,25,8.60
2015,06,13,13,26,7.30
2015,06,13,13,27,5.30
2015,06,13,13,28,10.20
2015,06,13,13,29,7.40
2015,06,13,13,30,6.00
2015,06,13,13,31,4.10
2015,06,13,13,32,2.20
2015,06,13,13,33,2.50
2015,06,13,13,34,2.90
2015,06,13,13,35,6.60
2015,06,13,13,36,4.90
2015,06,13,13,37,7.00
2015,06,13,13,38,5.70
2015,06,13,13,39,5.60
2015,06,13,13,40,5.20
2015,06,13,13,41,5.80
2015,06,13,13,42,3.10
2015,06,13,13,43,5.90
2015,06,13,13,44,8.00
2015,06,13,13,45,4.90
2015,06,13,13,46,6.90
2015,06,13,13,47,5.40
2015,06,13,13,48,8.80
2015,06,13,13,49,6.80
2015,06,13,13,50,5.90
2015,06,13,13,51,4.00
2015,06,13,13,52,6.60
2015,06,13,13,53,9.00
2015,06,13,13,54,6.30
2015,06,13,13,55,4.40
2015,06,13,13,56,6.40
2015,06,13,13,57,7.30
2015,06,13,13,58,7.60
2015,06,13,13,59,10.40
2015,06,13,14,00,2.70
2015,06,13,14,01,3.50
2015,06,13,14,02,6.00
2015,06,13,14,03,3.00
2015,06,13,14,04,2.50
2015,06,13,14,05,3.90
2015,06,13,14,06,5.50
2015,06,13,14,07,4.80
2015,06,13,14,08,4.00
2015,06,13,14,09,4.20
2015,06,13,14,10,5.70
2015,06,13,14,11,3.30
2015,06,13,14,12,3.40
2015,06,13,14,13,5.10
2015,06,13,14,14,4.60
2015,06,13,14,15,1.90
2015,06,13,14,16,5.30
2015,06,13,14,17,6.60
2015,06,13,14,18,4.80
2015,06,13,14,19,3.70
2015,06,13,14,20,3.20
2015,06,13,14,21,3.30
2015,06,13,14,22,4.70
2015,06,13,14,23,3.30
2015,06,13,14,24,3.10
2015,06,13,14,25,1.30
2015,06,13,14,26,2.70
2015,06,13,14,27,1.00
2015,06,13,14,28,4.00
2015,06,13,14,29,3.00
2015,06,13,14,30,5.40
2015,06,13,14,31,4.60
2015,06,13,14,32,4.20
2015,06,13,14,33,4.90
2015,06,13,14,34,4.50
2015,06,13,14,35,5.50
2015,06,13,14,36,3.80
2015,06,13,14,37,5.90
2015,06,13,14,38,3.80
2015,06,13,14,39,6.00
2015,06,13,14,40,9.80
2015,06,13,14,41,7.60
2015,06,13,14,42,7.30
2015,06,13,14,43,4.90
2015,06,13,14,44,1.70
2015,06,13,14,45,1.80
2015,06,13,14,46,2.20
2015,06,13,14,47,2.40
2015,06,13,14,48,3.00
2015,06,13,14,49,2.90
2015,06,13,14,50,3.20
2015,06,13,14,51,4.40
2015,06,13,14,52,4.30
2015,06,13,14,53,4.70
2015,06,13,14,54,6.10
2015,06,13,14,55,5.60
2015,06,13,14,56,2.40
2015,06,13,14,57,2.50
2015,06,13,14,58,2.70
2015,06,13,14,59,4.80
2015,06,13,15,00,4.50
2015,06,13,15,01,4.50
2015,06,13,15,02,8.70
2015,06,13,15,03,7.10
2015,06,13,15,04,8.50
2015,06,13,15,05,10.10
2015,06,13,15,06,10.60
2015,06,13,15,07,10.10
2015,06,13,15,08,6.30
2015,06,13,15,09,6.00
2015,06,13,15,10,7.80
2015,06,13,15,11,5.40
2015,06,13,15,12,5.30
2015,06,13,15,13,5.10
2015,06,13,15,14,7.70
2015,06,13,15,15,4.30
2015,06,13,15,16,3.00
2015,06,13,15,17,0.80
2015,06,13,15,18,4.20
2015,06,13,15,19,4.50
2015,06,13,15,20,8.20
2015,06,13,15,21,3.50
2015,06,13,15,22,4.20
2015,06,13,15,23,4.80
2015,06,13,15,24,7.50
2015,06,13,15,25,5.40
2015,06,13,15,26,4.40
2015,06,13,15,27,6.40
2015,06,13,15,28,4.20
2015,06,13,15,29,4.50
2015,06,13,15,30,9.70
2015,06,13,15,31,5.60
2015,06,13,15,32,4.80
2015,06,13,15,33,4.70
2015,06,13,15,34,7.10
2015,06,13,15,35,6.70
2015,06,13,15,36,5.70
2015,06,13,15,37,6.90
2015,06,13,15,38,1.60
2015,06,13,15,39,5.40
2015,06,13,15,40,5.20
2015,06,13,15,41,6.40
2015,06,13,15,42,3.50
2015,06,13,15,43,3.50
2015,06,13,15,44,4.20
2015,06,13,15,45,7.80
2015,06,13,15,46,5.90
2015,06,13,15,47,3.90
2015,06,13,15,48,7.10
2015,06,13,15,49,3.30
2015,06,13,15,50,2.60
2015,06,13,15,51,3.30
2015,06,13,15,52,3.20
2015,06,13,15,53,3.80
2015,06,13,15,54,3.00
2015,06,13,15,55,3.50
2015,06,13,15,56,2.00
2015,06,13,15,57,4.70
2015,06,13,15,58,3.70
2015,06,13,15,59,8.10
2015,06,13,16,00,9.10
2015,06,13,16,01,5.90
2015,06,13,16,02,11.40
2015,06,13,16,03,10.10
2015,06,13,16,04,1.90
2015,06,13,16,05,3.10
2015,06,13,16,06,3.10
2015,06,13,16,07,3.10
2015,06,13,16,08,3.70
2015,06,13,16,09,7.10
2015,06,13,16,10,5.10
2015,06,13,16,11,4.50
2015,06,13,16,12,8.20
2015,06,13,16,13,3.10
2015,06,13,16,14,5.20
2015,06,13,16,15,2.90
2015,06,13,16,16,3.70
2015,06,13,16,17,2.00
2015,06,13,16,18,1.10
2015,06,13,16,19,1.30
2015,06,13,16,20,3.30
2015,06,13,16,21,3.20
2015,06,13,16,22,1.70
2015,06,13,16,23,8.90
2015,06,13,16,24,7.30
2015,06,13,16,25,3.70
2015,06,13,16,26,4.50
2015,06,13,16,27,4.00
2015,06,13,16,28,5.90
2015,06,13,16,29,7.50
2015,06,13,16,30,4.30
2015,06,13,16,31,2.90
2015,06,13,16,32,1.10
2015,06,13,16,33,3.50
2015,06,13,16,34,3.40
2015,06,13,16,35,2.80
2015,06,13,16,36,3.20
2015,06,13,16,37,8.00
2015,06,13,16,38,7.40
2015,06,13,16,39,8.90
2015,06,13,16,40,10.90
2015,06,13,16,41,6.80
2015,06,13,16,42,5.90
2015,06,13,16,43,6.70
2015,06,13,16,44,5.60
2015,06,13,16,45,5.50
2015,06,13,16,46,4.30
2015,06,13,16,47,5.10
2015,06,13,16,48,5.90
2015,06,13,16,49,9.80
2015,06,13,16,50,8.00
2015,06,13,16,51,9.50
2015,06,13,16,52,8.30
2015,06,13,16,53,6.10
2015,06,13,16,54,5.90
2015,06,13,16,55,5.50
2015,06,13,16,56,6.20
2015,06,13,16,57,4.70
2015,06,13,16,58,4.50
2015,06,13,16,59,3.50
2015,06,13,17,00,7.30
2015,06,13,17,01,5.10
2015,06,13,17,02,3.50
2015,06,13,17,03,3.40
2015,06,13,17,04,2.60
2015,06,13,17,05,5.30
2015,06,13,17,06,4.00
2015,06,13,17,07,4.80
2015,06,13,17,08,3.70
2015,06,13,17,09,1.80
2015,06,13,17,10,3.90
2015,06,13,17,11,6.90
2015,06,13,17,12,2.60
2015,06,13,17,13,4.80
2015,06,13,17,14,4.10
2015,06,13,17,15,6.30
2015,06,13,17,16,6.30
2015,06,13,17,17,4.00
2015,06,13,17,18,4.90
2015,06,13,17,19,4.00
2015,06,13,17,20,3.80
2015,06,13,17,21,2.50
2015,06,13,17,22,2.30
2015,06,13,17,23,4.60
2015,06,13,17,24,4.70
2015,06,13,17,25,4.90
2015,06,13,17,26,7.00
2015,06,13,17,27,5.10
2015,06,13,17,28,3.10
2015,06,13,17,29,5.30
2015,06,13,17,30,4.50
2015,06,13,17,31,3.70
2015,06,13,17,32,3.50
2015,06,13,17,33,1.80
2015,06,13,17,34,1.30
2015,06,13,17,35,2.30
2015,06,13,17,36,5.10
2015,06,13,17,37,7.60
2015,06,13,17,38,5.80
2015,06,13,17,39,2.30
2015,06,13,17,40,2.40
2015,06,13,17,41,3.20
2015,06,13,17,42,1.70
2015,06,13,17,43,2.80
2015,06,13,17,44,3.40
2015,06,13,17,45,4.80
2015,06,13,17,46,4.10
2015,06,13,17,47,2.70
2015,06,13,17,48,1.60
2015,06,13,17,49,1.00
2015,06,13,17,50,3.10
2015,06,13,17,51,3.10
2015,06,13,17,52,3.80
2015,06,13,17,53,3.60
2015,06,13,17,54,7.80
2015,06,13,17,55,3.70
2015,06,13,17,56,0.40
2015,06,13,17,57,2.10
2015,06,13,17,58,2.70
2015,06,13,17,59,2.00
2015,06,13,18,00,3.90
2015,06,13,18,01,3.00
2015,06,13,18,02,3.40
2015,06,13,18,03,2.80
2015,06,13,18,04,2.80
2015,06,13,18,05,3.30